User: anonymous   Login
Location: Unspecified
(0.0000°N, 0.0000°E)
Time: 16:27:50
(UTC+00:00)
Language:

NNS O-27 - Orbit

View from above orbital plane
View from above orbital plane
View from above satellite
View from above satellite

Ground track
Ground track

The orbit data is extracted from the following two-line orbital elements,

1 18361U 87080A   18110.20702171  .00000015  00000-0  13715-4 0  9990
2 18361  90.3266 345.6005 0103116 302.6070  56.5156 13.44452839500422
Epoch (UTC): 20 April 2018 04:58:06
Eccentricity: 0.0103116
inclination: 90.3266°
perigee height: 1016 km
apogee height: 1170 km
right ascension of ascending node: 345.6005°
argument of perigee: 302.6070°
revolutions per day: 13.44452839
mean anomaly at epoch: 56.5156°
orbit number at epoch: 50042

The dashed part of the orbit path shows where the satellite is in the earth's shadow,  

DLR